When you browse on this site, cookies collect data to enhance your experience and personalize the content and advertising you see.
Visit our Privacy Policy to learn more. By continuing to use the site, you agree to this use of cookies and data.
  • In Denmark
  • List of Countries
  • For 7 days
  • Water Temperature
  • Weather Map
  • Weather Widgets
  • user-avatar
    Login

    Hourly Weather Dobrich

    Today, 24 February, Monday

    Time Temperature Precipitation Wind Pressure Humidity
    00:00 +5°C° 0 mm 4 mps 738 mmHg 63%
    01:00 +5°C° 0 mm 4 mps 737 mmHg 62%
    02:00 +5°C° 0 mm 4 mps 736 mmHg 62%
    03:00 +5°C° 0 mm 5 mps 736 mmHg 59%
    04:00 +6°C° 0 mm 5 mps 735 mmHg 56%
    05:00 +6°C° 0 mm 5 mps 734 mmHg 52%
    06:00 +7°C° 0 mm 6 mps 734 mmHg 51%
    07:00 +8°C° 0 mm 6 mps 734 mmHg 50%
    08:00 +8°C° 0 mm 7 mps 733 mmHg 49%
    09:00 +10°C° 0 mm 9 mps 734 mmHg 49%
    10:00 +11°C° 0 mm 11 mps 734 mmHg 50%
    11:00 +13°C° 0 mm 13 mps 734 mmHg 50%
    12:00 +12°C° 0.1 mm 12 mps 734 mmHg 49%
    13:00 +12°C° 0.1 mm 12 mps 734 mmHg 47%
    14:00 +11°C° 0.1 mm 11 mps 735 mmHg 46%
    15:00 +9°C° 0 mm 10 mps 735 mmHg 43%
    16:00 +10°C° 0 mm 9 mps 736 mmHg 40%
    17:00 +9°C° 0 mm 8 mps 737 mmHg 37%
    18:00 +8°C° 0 mm 7 mps 738 mmHg 39%
    19:00 +6°C° 0 mm 7 mps 739 mmHg 41%
    20:00 +5°C° 0 mm 7 mps 740 mmHg 43%
    21:00 +4°C° 0 mm 6 mps 741 mmHg 46%
    22:00 +3°C° 0 mm 5 mps 741 mmHg 49%
    23:00 +4°C° 0 mm 4 mps 742 mmHg 52%

    Tomorrow, 25 February, Tuesday

    Time Temperature Precipitation Wind Pressure Humidity
    00:00 +3°C° 0 mm 3 mps 742 mmHg 55%
    01:00 +3°C° 0 mm 3 mps 742 mmHg 58%
    02:00 +2°C° 0 mm 3 mps 742 mmHg 61%
    03:00 +3°C° 0 mm 2 mps 742 mmHg 63%
    04:00 +3°C° 0 mm 2 mps 742 mmHg 65%
    05:00 +2°C° 0 mm 2 mps 741 mmHg 67%
    06:00 +3°C° 0 mm 2 mps 741 mmHg 66%
    07:00 +3°C° 0 mm 2 mps 741 mmHg 65%
    08:00 +3°C° 0 mm 2 mps 741 mmHg 64%
    09:00 +4°C° 0 mm 4 mps 741 mmHg 58%
    10:00 +6°C° 0 mm 5 mps 741 mmHg 52%
    11:00 +6°C° 0 mm 7 mps 741 mmHg 46%
    12:00 +8°C° 0 mm 7 mps 740 mmHg 45%
    13:00 +9°C° 0 mm 8 mps 739 mmHg 45%
    14:00 +9°C° 0 mm 8 mps 739 mmHg 44%
    15:00 +9°C° 0 mm 8 mps 738 mmHg 47%
    16:00 +9°C° 0 mm 7 mps 737 mmHg 49%
    17:00 +8°C° 0 mm 7 mps 736 mmHg 52%
    18:00 +8°C° 0 mm 7 mps 736 mmHg 54%
    19:00 +6°C° 0 mm 7 mps 736 mmHg 56%
    20:00 +7°C° 0 mm 6 mps 735 mmHg 58%
    21:00 +5°C° 0 mm 6 mps 735 mmHg 58%
    22:00 +6°C° 0 mm 5 mps 734 mmHg 58%
    23:00 +6°C° 0 mm 5 mps 733 mmHg 57%

    Day after tomorrow, 26 February, Wednesday

    Time Temperature Precipitation Wind Pressure Humidity
    00:00 +5°C° 0 mm 4 mps 733 mmHg 61%
    01:00 +5°C° 0 mm 4 mps 732 mmHg 64%
    02:00 +4°C° 0 mm 4 mps 732 mmHg 67%
    03:00 +4°C° 0 mm 3 mps 731 mmHg 69%
    04:00 +4°C° 0 mm 3 mps 731 mmHg 71%
    05:00 +4°C° 0 mm 3 mps 731 mmHg 73%
    06:00 +4°C° 0 mm 3 mps 731 mmHg 72%
    07:00 +5°C° 0 mm 3 mps 731 mmHg 71%
    08:00 +5°C° 0 mm 3 mps 731 mmHg 70%
    09:00 +9°C° 0 mm 3 mps 731 mmHg 63%
    10:00 +11°C° 0 mm 3 mps 730 mmHg 57%
    11:00 +13°C° 0 mm 3 mps 730 mmHg 51%
    12:00 +14°C° 0 mm 3 mps 730 mmHg 49%
    13:00 +15°C° 0 mm 4 mps 730 mmHg 48%
    14:00 +15°C° 0 mm 4 mps 729 mmHg 47%
    15:00 +14°C° 0 mm 4 mps 729 mmHg 52%
    16:00 +14°C° 0 mm 5 mps 728 mmHg 57%
    17:00 +13°C° 0 mm 5 mps 728 mmHg 63%
    18:00 +12°C° 0 mm 5 mps 728 mmHg 67%
    19:00 +10°C° 0 mm 5 mps 728 mmHg 72%
    20:00 +10°C° 0 mm 5 mps 728 mmHg 76%
    21:00 +10°C° 0 mm 5 mps 728 mmHg 77%
    22:00 +10°C° 0 mm 6 mps 728 mmHg 77%
    23:00 +9°C° 0 mm 6 mps 727 mmHg 77%

    27 February, Thursday

    Time Temperature Precipitation Wind Pressure Humidity
    00:00 +9°C° 0 mm 6 mps 727 mmHg 78%
    01:00 +9°C° 0 mm 7 mps 727 mmHg 78%
    02:00 +9°C° 0 mm 7 mps 727 mmHg 78%
    03:00 +9°C° 0 mm 7 mps 726 mmHg 81%
    04:00 +9°C° 0 mm 6 mps 726 mmHg 83%
    05:00 +9°C° 0 mm 6 mps 726 mmHg 86%
    06:00 +9°C° 0 mm 7 mps 726 mmHg 84%
    07:00 +9°C° 0 mm 7 mps 726 mmHg 82%
    08:00 +9°C° 0 mm 7 mps 726 mmHg 80%
    09:00 +11°C° 0.6 mm 7 mps 726 mmHg 73%
    10:00 +12°C° 0.6 mm 8 mps 726 mmHg 65%
    11:00 +13°C° 0.6 mm 8 mps 726 mmHg 58%
    12:00 +15°C° 0.5 mm 8 mps 725 mmHg 56%
    13:00 +15°C° 0.5 mm 8 mps 725 mmHg 53%
    14:00 +15°C° 0.5 mm 9 mps 724 mmHg 51%
    15:00 +11°C° 0.2 mm 9 mps 724 mmHg 61%
    16:00 +7°C° 0.2 mm 9 mps 724 mmHg 71%
    17:00 +3°C° 0.2 mm 10 mps 724 mmHg 81%
    18:00 +3°C° 0.1 mm 9 mps 725 mmHg 79%
    19:00 +3°C° 0.1 mm 9 mps 726 mmHg 77%
    20:00 +2°C° 0.1 mm 9 mps 727 mmHg 75%
    21:00 +1°C° 0.2 mm 9 mps 727 mmHg 80%
    22:00 +1°C° 0.2 mm 9 mps 728 mmHg 85%
    23:00 0°C° 0.2 mm 10 mps 729 mmHg 91%

    28 February, Friday

    Time Temperature Precipitation Wind Pressure Humidity
    00:00 0°C° 0.4 mm 8 mps 730 mmHg 91%
    01:00 -1°C° 0.4 mm 7 mps 730 mmHg 92%
    02:00 -1°C° 0.4 mm 6 mps 731 mmHg 92%
    03:00 0°C° 0.5 mm 5 mps 732 mmHg 91%
    04:00 0°C° 0.5 mm 5 mps 732 mmHg 90%
    05:00 0°C° 0.5 mm 4 mps 733 mmHg 88%
    06:00 0°C° 0 mm 5 mps 734 mmHg 83%
    07:00 +1°C° 0 mm 5 mps 734 mmHg 77%
    08:00 +1°C° 0 mm 5 mps 735 mmHg 71%
    09:00 +2°C° 0 mm 6 mps 736 mmHg 65%
    10:00 +3°C° 0 mm 6 mps 736 mmHg 58%
    11:00 +4°C° 0 mm 6 mps 737 mmHg 52%
    12:00 +5°C° 0 mm 6 mps 737 mmHg 48%
    13:00 +7°C° 0 mm 6 mps 737 mmHg 43%
    14:00 +8°C° 0 mm 6 mps 737 mmHg 39%
    15:00 +7°C° 0 mm 5 mps 737 mmHg 41%
    16:00 +7°C° 0 mm 4 mps 736 mmHg 42%
    17:00 +7°C° 0 mm 4 mps 736 mmHg 43%
    18:00 +6°C° 0 mm 4 mps 736 mmHg 46%
    19:00 +5°C° 0 mm 4 mps 737 mmHg 48%
    20:00 +4°C° 0 mm 4 mps 737 mmHg 51%
    21:00 +4°C° 0 mm 4 mps 737 mmHg 51%
    22:00 +4°C° 0 mm 4 mps 737 mmHg 51%
    23:00 +4°C° 0 mm 4 mps 737 mmHg 51%

    29 February, Saturday

    Time Temperature Precipitation Wind Pressure Humidity
    00:00 +4°C° 0 mm 4 mps 737 mmHg 51%
    01:00 +3°C° 0 mm 4 mps 737 mmHg 51%
    02:00 +3°C° 0 mm 3 mps 737 mmHg 51%
    03:00 +3°C° 0 mm 3 mps 737 mmHg 52%
    04:00 +3°C° 0 mm 3 mps 737 mmHg 52%
    05:00 +3°C° 0 mm 3 mps 737 mmHg 53%
    06:00 +4°C° 0 mm 3 mps 737 mmHg 53%
    07:00 +4°C° 0 mm 3 mps 737 mmHg 54%
    08:00 +5°C° 0 mm 3 mps 737 mmHg 54%
    09:00 +8°C° 0 mm 3 mps 737 mmHg 50%
    10:00 +10°C° 0 mm 3 mps 737 mmHg 45%
    11:00 +12°C° 0 mm 4 mps 737 mmHg 41%
    12:00 +13°C° 0 mm 4 mps 737 mmHg 41%
    13:00 +13°C° 0 mm 5 mps 736 mmHg 40%
    14:00 +14°C° 0 mm 6 mps 736 mmHg 40%
    15:00 +13°C° 0 mm 5 mps 735 mmHg 46%
    16:00 +12°C° 0 mm 5 mps 735 mmHg 53%
    17:00 +12°C° 0 mm 5 mps 734 mmHg 59%
    18:00 +10°C° 0 mm 5 mps 734 mmHg 61%
    19:00 +9°C° 0 mm 6 mps 734 mmHg 63%
    20:00 +9°C° 0 mm 6 mps 734 mmHg 65%
    21:00 +8°C° 0 mm 5 mps 734 mmHg 69%
    22:00 +8°C° 0 mm 5 mps 734 mmHg 72%
    23:00 +7°C° 0 mm 4 mps 734 mmHg 75%
    Show more